EXS8PW EGNM-LGKR

Flight info

Callsign EXS8PW
Flight time 2h 49m
Altitude 37000
Route LAMIX L603 DOLAS DCT NAVPI DCT UMUPU DCT TUSUK DCT UTABA DCT BEMKI DCT ELMEM DCT DIRAB DCT UPIRO DCT PEVAL DCT NAKIT DCT UMSON DCT AIOSA DCT ENOXA DCT KAPPO DCT TIGRA
Aircraft B738/M-SDE2E3FGHIRWXY/LB1

Departure

Time 2026-05-07 11:51
Airport Leeds Bradford Airport (EGNM)

Arrival

Time 2026-05-07 14:41
Airport Corfu Ioannis Kapodistrias International Airport (LGKR)
Time Latitude Longitude Altitude Speed Heading
2026-05-07 11:21 53.86878 -1.65690 664 ft 0 kts
2026-05-07 11:43 53.86877 -1.65690 664 ft 2 kts
2026-05-07 11:43 53.86852 -1.65685 663 ft 4 kts 338°
2026-05-07 11:43 53.86830 -1.65662 662 ft 4 kts 308°
2026-05-07 11:43 53.86817 -1.65623 662 ft 4 kts 283°
2026-05-07 11:44 53.86815 -1.65592 663 ft 0 kts 269°
2026-05-07 11:45 53.86816 -1.65693 663 ft 20 kts 270°
2026-05-07 11:46 53.86810 -1.65846 664 ft 19 kts 270°
2026-05-07 11:46 53.86820 -1.66065 665 ft 18 kts 287°
2026-05-07 11:46 53.86903 -1.66223 665 ft 18 kts 318°
2026-05-07 11:46 53.86978 -1.66382 671 ft 17 kts 299°
2026-05-07 11:47 53.86967 -1.66563 671 ft 17 kts 245°
2026-05-07 11:47 53.87021 -1.66719 676 ft 16 kts 316°
2026-05-07 11:47 53.87100 -1.66846 680 ft 15 kts 319°
2026-05-07 11:47 53.87179 -1.66963 686 ft 15 kts 321°
2026-05-07 11:48 53.87276 -1.66995 688 ft 14 kts
2026-05-07 11:48 53.87372 -1.66994 687 ft 14 kts 343°
2026-05-07 11:48 53.87400 -1.67096 690 ft 0 kts 249°
2026-05-07 11:49 53.87381 -1.67151 685 ft 10 kts 229°
2026-05-07 11:50 53.87338 -1.67179 684 ft 14 kts 181°
2026-05-07 11:50 53.87303 -1.67154 681 ft 0 kts 139°
2026-05-07 11:50 53.87295 -1.67141 685 ft 6 kts 137°
2026-05-07 11:51 53.87159 -1.66932 684 ft 64 kts 138°
2026-05-07 11:51 53.86617 -1.66096 666 ft 144 kts 137°
2026-05-07 11:51 53.85720 -1.64738 943 ft 187 kts 140°
2026-05-07 11:51 53.84724 -1.63325 1936 ft 196 kts 142°
2026-05-07 11:52 53.83609 -1.61649 2255 ft 229 kts 140°
2026-05-07 11:52 53.82471 -1.59693 2708 ft 243 kts 136°
2026-05-07 11:52 53.81278 -1.57563 3269 ft 254 kts 136°
2026-05-07 11:52 53.80058 -1.55369 4070 ft 258 kts 136°
2026-05-07 11:53 53.78823 -1.53146 4905 ft 262 kts 136°
2026-05-07 11:53 53.77548 -1.50855 5492 ft 276 kts 136°
2026-05-07 11:53 53.76167 -1.48381 5712 ft 303 kts 135°
2026-05-07 11:53 53.74663 -1.45686 5928 ft 328 kts 135°
2026-05-07 11:54 53.73046 -1.42790 6138 ft 351 kts 135°
2026-05-07 11:54 53.71347 -1.39746 6636 ft 362 kts 134°
2026-05-07 11:54 53.69613 -1.36638 7374 ft 365 kts 134°
2026-05-07 11:54 53.67867 -1.33510 8146 ft 367 kts 134°
2026-05-07 11:55 53.66245 -1.30140 8828 ft 374 kts 125°
2026-05-07 11:55 53.64865 -1.26412 9630 ft 376 kts 123°
2026-05-07 11:55 53.63509 -1.22622 10305 ft 380 kts 123°
2026-05-07 11:55 53.62155 -1.18842 10902 ft 384 kts 123°
2026-05-07 11:56 53.60741 -1.14935 11535 ft 387 kts 123°
2026-05-07 11:56 53.59323 -1.11055 12166 ft 391 kts 123°
2026-05-07 11:56 53.57884 -1.07151 12797 ft 394 kts 123°
2026-05-07 11:56 53.56430 -1.03229 13404 ft 398 kts 123°
2026-05-07 11:57 53.54948 -0.99250 13944 ft 403 kts 123°
2026-05-07 11:57 53.53473 -0.95301 14497 ft 405 kts 123°
2026-05-07 11:57 53.51968 -0.91279 15074 ft 408 kts 123°
2026-05-07 11:57 53.50454 -0.87240 15618 ft 411 kts 123°
2026-05-07 11:58 53.48924 -0.83164 16126 ft 414 kts 123°
2026-05-07 11:58 53.47383 -0.79066 16650 ft 417 kts 123°
2026-05-07 11:58 53.45824 -0.74930 17167 ft 420 kts 123°
2026-05-07 11:58 53.44254 -0.70767 17687 ft 423 kts 123°
2026-05-07 11:59 53.42675 -0.66589 18197 ft 426 kts 123°
2026-05-07 11:59 53.41082 -0.62382 18651 ft 429 kts 124°
2026-05-07 11:59 53.39478 -0.58151 19107 ft 431 kts 124°
2026-05-07 11:59 53.37867 -0.53909 19595 ft 432 kts 124°
2026-05-07 12:00 53.36253 -0.49666 20066 ft 433 kts 123°
2026-05-07 12:00 53.34629 -0.45407 20504 ft 435 kts 123°
2026-05-07 12:00 53.32996 -0.41128 20925 ft 437 kts 123°
2026-05-07 12:00 53.31351 -0.36827 21346 ft 439 kts 124°
2026-05-07 12:01 53.29703 -0.32523 21761 ft 441 kts 124°
2026-05-07 12:01 53.28044 -0.28199 22163 ft 443 kts 124°
2026-05-07 12:01 53.26376 -0.23859 22538 ft 445 kts 124°
2026-05-07 12:01 53.24698 -0.19499 22913 ft 447 kts 124°
2026-05-07 12:02 53.23009 -0.15116 23300 ft 449 kts 124°
2026-05-07 12:02 53.21315 -0.10729 23668 ft 451 kts 124°
2026-05-07 12:02 53.19612 -0.06323 23968 ft 453 kts 123°
2026-05-07 12:02 53.18088 -0.01714 24225 ft 456 kts 115°
2026-05-07 12:03 53.17014 0.03275 24501 ft 459 kts 108°
2026-05-07 12:03 53.16068 0.08355 24860 ft 458 kts 108°
2026-05-07 12:03 53.15118 0.13434 25146 ft 460 kts 108°
2026-05-07 12:03 53.14151 0.18531 25399 ft 463 kts 108°
2026-05-07 12:04 53.13166 0.23649 25657 ft 465 kts 108°
2026-05-07 12:04 53.12168 0.28771 25934 ft 466 kts 109°
2026-05-07 12:04 53.11162 0.33892 26213 ft 466 kts 109°
2026-05-07 12:04 53.10149 0.39028 26504 ft 467 kts 109°
2026-05-07 12:05 53.09134 0.44150 26884 ft 465 kts 109°
2026-05-07 12:05 53.08124 0.49241 27303 ft 463 kts 109°
2026-05-07 12:05 53.07117 0.54309 27690 ft 461 kts 108°
2026-05-07 12:05 53.06106 0.59379 27998 ft 462 kts 108°
2026-05-07 12:06 53.05094 0.64443 28347 ft 461 kts 108°
2026-05-07 12:06 53.04083 0.69490 28754 ft 459 kts 108°
2026-05-07 12:06 53.03075 0.74512 29185 ft 457 kts 108°
2026-05-07 12:06 53.02081 0.79451 29573 ft 456 kts 108°
2026-05-07 12:07 53.01061 0.84507 29934 ft 455 kts 108°
2026-05-07 12:07 53.00055 0.89483 30306 ft 453 kts 108°
2026-05-07 12:07 52.99058 0.94403 30829 ft 447 kts 108°
2026-05-07 12:07 52.98081 0.99209 31251 ft 444 kts 108°
2026-05-07 12:08 52.97065 1.04047 31500 ft 445 kts 109°
2026-05-07 12:08 52.95989 1.08872 31679 ft 447 kts 110°
2026-05-07 12:08 52.94885 1.13688 31963 ft 446 kts 110°
2026-05-07 12:08 52.93780 1.18478 32338 ft 444 kts 110°
2026-05-07 12:09 52.92683 1.23236 32712 ft 441 kts 110°
2026-05-07 12:09 52.91590 1.27991 33013 ft 441 kts 110°
2026-05-07 12:09 52.90502 1.32735 33277 ft 441 kts 110°
2026-05-07 12:09 52.89414 1.37481 33553 ft 440 kts 110°
2026-05-07 12:10 52.88333 1.42201 33865 ft 438 kts 110°
2026-05-07 12:10 52.87250 1.46918 34154 ft 437 kts 110°
2026-05-07 12:10 52.86169 1.51619 34341 ft 438 kts 110°
2026-05-07 12:11 52.83982 1.61095 34553 ft 443 kts 110°
2026-05-07 12:11 52.82882 1.65845 34760 ft 442 kts 110°
2026-05-07 12:11 52.81780 1.70592 34950 ft 443 kts 110°
2026-05-07 12:11 52.80673 1.75351 35087 ft 444 kts 110°
2026-05-07 12:12 52.79561 1.80121 35228 ft 445 kts 110°
2026-05-07 12:12 52.78447 1.84889 35407 ft 445 kts 111°
2026-05-07 12:12 52.77329 1.89660 35576 ft 446 kts 111°
2026-05-07 12:12 52.76206 1.94443 35709 ft 447 kts 111°
2026-05-07 12:13 52.75080 1.99232 35858 ft 448 kts 111°
2026-05-07 12:13 52.73948 2.04034 35986 ft 449 kts 111°
2026-05-07 12:13 52.72810 2.08848 36045 ft 452 kts 111°
2026-05-07 12:13 52.71663 2.13689 36183 ft 452 kts 111°
2026-05-07 12:14 52.70518 2.18514 36403 ft 452 kts 111°
2026-05-07 12:14 52.69371 2.23336 36573 ft 452 kts 111°
2026-05-07 12:14 52.68221 2.28157 36697 ft 453 kts 111°
2026-05-07 12:14 52.67065 2.32996 36823 ft 454 kts 112°
2026-05-07 12:15 52.65907 2.37831 36946 ft 454 kts 112°
2026-05-07 12:15 52.64750 2.42654 37121 ft 451 kts 112°
2026-05-07 12:15 52.63590 2.47475 37082 ft 454 kts 112°
2026-05-07 12:16 52.61256 2.57148 37105 ft 457 kts 112°
2026-05-07 12:16 52.58894 2.66894 37108 ft 460 kts 112°
2026-05-07 12:17 52.56515 2.76674 37119 ft 461 kts 112°
2026-05-07 12:17 52.53947 2.86339 37075 ft 462 kts 121°
2026-05-07 12:17 52.52240 2.90786 37204 ft 459 kts 123°
2026-05-07 12:18 52.50472 2.95155 37111 ft 461 kts 124°
2026-05-07 12:18 52.46899 3.03873 37086 ft 461 kts 124°
2026-05-07 12:19 52.43350 3.12619 37090 ft 461 kts 124°
2026-05-07 12:19 52.39845 3.21334 37095 ft 461 kts 124°
2026-05-07 12:20 52.36320 3.30105 37111 ft 461 kts 124°
2026-05-07 12:20 52.32788 3.38864 37097 ft 461 kts 124°
2026-05-07 12:21 52.29253 3.47597 37091 ft 461 kts 124°
2026-05-07 12:21 52.25707 3.56324 37098 ft 461 kts 124°
2026-05-07 12:22 52.22155 3.65039 37086 ft 461 kts 125°
2026-05-07 12:22 52.18594 3.73747 37109 ft 461 kts 124°
2026-05-07 12:23 52.15028 3.82434 37088 ft 462 kts 125°
2026-05-07 12:23 52.11471 3.91071 37093 ft 462 kts 125°
2026-05-07 12:24 52.07862 3.99803 37078 ft 463 kts 125°
2026-05-07 12:24 52.04265 4.08479 37096 ft 463 kts 125°
2026-05-07 12:25 52.00661 4.17142 37070 ft 463 kts 125°
2026-05-07 12:25 51.97044 4.25807 37083 ft 464 kts 126°
2026-05-07 12:26 51.93444 4.34402 37076 ft 464 kts 126°
2026-05-07 12:26 51.89812 4.43045 37081 ft 464 kts 126°
2026-05-07 12:27 51.86171 4.51679 37082 ft 465 kts 126°
2026-05-07 12:27 51.82511 4.60332 37074 ft 468 kts 126°
2026-05-07 12:28 51.78827 4.69009 37043 ft 468 kts 126°
2026-05-07 12:28 51.75151 4.77638 37064 ft 465 kts 126°
2026-05-07 12:29 51.71489 4.86208 37077 ft 463 kts 126°
2026-05-07 12:29 51.67827 4.94748 37079 ft 462 kts 126°
2026-05-07 12:30 51.64174 5.03239 37076 ft 462 kts 126°
2026-05-07 12:30 51.60500 5.11751 37067 ft 464 kts 126°
2026-05-07 12:31 51.56811 5.20270 37080 ft 464 kts 126°
2026-05-07 12:31 51.53114 5.28779 37062 ft 464 kts 126°
2026-05-07 12:32 51.49411 5.37276 37077 ft 464 kts 126°
2026-05-07 12:32 51.45710 5.45739 37074 ft 463 kts 126°
2026-05-07 12:33 51.40148 5.58405 37072 ft 463 kts 127°
2026-05-07 12:33 51.36434 5.66827 37061 ft 464 kts 127°
2026-05-07 12:34 51.32706 5.75256 37047 ft 464 kts 127°
2026-05-07 12:34 51.29602 5.82253 37047 ft 465 kts 127°
2026-05-07 12:35 51.25239 5.92053 37043 ft 466 kts 127°
2026-05-07 12:35 51.21478 6.00474 37035 ft 466 kts 127°
2026-05-07 12:36 51.17714 6.08875 37058 ft 466 kts 127°
2026-05-07 12:36 51.14547 6.15921 37036 ft 466 kts 127°
2026-05-07 12:37 51.10793 6.24249 37033 ft 466 kts 127°
2026-05-07 12:37 51.07011 6.32641 37024 ft 467 kts 127°
2026-05-07 12:38 51.03210 6.41008 37037 ft 467 kts 127°
2026-05-07 12:38 50.99400 6.49365 37047 ft 467 kts 127°
2026-05-07 12:39 50.95588 6.57710 37056 ft 467 kts 127°
2026-05-07 12:39 50.91772 6.66041 37035 ft 467 kts 127°
2026-05-07 12:40 50.87949 6.74361 37070 ft 467 kts 127°
2026-05-07 12:40 50.84114 6.82682 37043 ft 468 kts 127°
2026-05-07 12:41 50.80273 6.90988 37036 ft 468 kts 127°
2026-05-07 12:41 50.76426 6.99280 37047 ft 468 kts 127°
2026-05-07 12:42 50.72572 7.07562 37038 ft 468 kts 127°
2026-05-07 12:42 50.68721 7.15811 37050 ft 467 kts 127°
2026-05-07 12:43 50.64858 7.24062 37037 ft 468 kts 127°
2026-05-07 12:43 50.60991 7.32296 37049 ft 468 kts 127°
2026-05-07 12:44 50.57112 7.40531 37030 ft 469 kts 128°
2026-05-07 12:44 50.52999 7.48457 37031 ft 467 kts 134°
2026-05-07 12:45 50.48579 7.55937 37027 ft 467 kts 135°
2026-05-07 12:45 50.44154 7.63398 37034 ft 467 kts 134°
2026-05-07 12:46 50.39762 7.70899 37046 ft 468 kts 134°
2026-05-07 12:46 50.35367 7.78429 37049 ft 468 kts 134°
2026-05-07 12:47 50.30969 7.85948 37033 ft 468 kts 134°
2026-05-07 12:47 50.26567 7.93444 37028 ft 468 kts 134°
2026-05-07 12:48 50.22184 8.00885 37041 ft 468 kts 134°
2026-05-07 12:48 50.17767 8.08364 37021 ft 468 kts 134°
2026-05-07 12:49 50.13064 8.15350 36993 ft 466 kts 146°
2026-05-07 12:49 50.07411 8.20117 37054 ft 462 kts 157°
2026-05-07 12:50 50.01544 8.24226 37036 ft 463 kts 157°
2026-05-07 12:50 49.95679 8.28352 37031 ft 463 kts 157°
2026-05-07 12:51 49.89820 8.32531 37016 ft 464 kts 157°
2026-05-07 12:51 49.83962 8.36728 37013 ft 464 kts 157°
2026-05-07 12:52 49.78099 8.40922 37028 ft 464 kts 157°
2026-05-07 12:52 49.72225 8.45111 37019 ft 465 kts 157°
2026-05-07 12:53 49.66353 8.49285 37041 ft 464 kts 157°
2026-05-07 12:53 49.60483 8.53446 37037 ft 465 kts 157°
2026-05-07 12:54 49.54612 8.57597 37051 ft 464 kts 157°
2026-05-07 12:54 49.48740 8.61738 37047 ft 464 kts 157°
2026-05-07 12:55 49.42853 8.65878 37046 ft 464 kts 157°
2026-05-07 12:55 49.36981 8.69997 37040 ft 464 kts 157°
2026-05-07 12:56 49.31105 8.74107 37033 ft 465 kts 157°
2026-05-07 12:56 49.25215 8.78217 37026 ft 465 kts 157°
2026-05-07 12:57 49.19328 8.82313 37033 ft 465 kts 158°
2026-05-07 12:57 49.13436 8.86403 37019 ft 465 kts 158°
2026-05-07 12:58 49.07535 8.90488 37023 ft 465 kts 158°
2026-05-07 12:58 49.01641 8.94558 37022 ft 465 kts 158°
2026-05-07 12:59 48.95745 8.98617 37019 ft 465 kts 158°
2026-05-07 12:59 48.89847 9.02669 37018 ft 465 kts 158°
2026-05-07 13:00 48.83951 9.06708 37023 ft 465 kts 158°
2026-05-07 13:00 48.78049 9.10741 37012 ft 465 kts 158°
2026-05-07 13:01 48.72149 9.14762 37030 ft 465 kts 158°
2026-05-07 13:01 48.66283 9.18750 37014 ft 465 kts 158°
2026-05-07 13:02 48.60341 9.22779 37024 ft 465 kts 158°
2026-05-07 13:02 48.54478 9.26744 37018 ft 465 kts 158°
2026-05-07 13:03 48.48573 9.30728 37011 ft 465 kts 158°
2026-05-07 13:03 48.42665 9.34704 37011 ft 465 kts 158°
2026-05-07 13:04 48.36758 9.38669 37016 ft 465 kts 158°
2026-05-07 13:04 48.30855 9.42623 37018 ft 465 kts 159°
2026-05-07 13:05 48.25015 9.46846 36955 ft 469 kts 150°
2026-05-07 13:05 48.19884 9.52888 37060 ft 470 kts 142°
2026-05-07 13:06 48.14869 9.59197 37041 ft 471 kts 143°
2026-05-07 13:06 48.09825 9.65457 37037 ft 470 kts 143°
2026-05-07 13:07 48.04759 9.71665 37035 ft 470 kts 143°
2026-05-07 13:07 47.99685 9.77849 37019 ft 471 kts 143°
2026-05-07 13:08 47.94592 9.84041 37002 ft 472 kts 143°
2026-05-07 13:08 47.89505 9.90214 37025 ft 472 kts 143°
2026-05-07 13:09 47.84412 9.96378 37014 ft 472 kts 144°
2026-05-07 13:09 47.79317 10.02529 37027 ft 471 kts 144°
2026-05-07 13:10 47.74255 10.08624 37024 ft 471 kts 144°
2026-05-07 13:10 47.69162 10.14741 37011 ft 471 kts 144°
2026-05-07 13:11 47.64061 10.20852 37027 ft 471 kts 144°
2026-05-07 13:11 47.58958 10.26952 37012 ft 471 kts 144°
2026-05-07 13:12 47.53774 10.32885 36985 ft 470 kts 149°
2026-05-07 13:12 47.48315 10.38150 37003 ft 468 kts 151°
2026-05-07 13:13 47.42842 10.43329 37010 ft 467 kts 150°
2026-05-07 13:13 47.37394 10.48585 37007 ft 467 kts 150°
2026-05-07 13:14 47.31961 10.53852 37014 ft 467 kts 150°
2026-05-07 13:14 47.26539 10.59138 36998 ft 468 kts 149°
2026-05-07 13:15 47.21234 10.64706 36980 ft 469 kts 148°
2026-05-07 13:15 47.15941 10.70335 36985 ft 470 kts 148°
2026-05-07 13:16 47.10624 10.75922 36956 ft 470 kts 148°
2026-05-07 13:16 47.05291 10.81479 36956 ft 469 kts 148°
2026-05-07 13:17 46.99963 10.87012 36980 ft 470 kts 149°
2026-05-07 13:17 46.94607 10.92563 36958 ft 473 kts 149°
2026-05-07 13:18 46.89235 10.98119 36974 ft 474 kts 149°
2026-05-07 13:18 46.83851 11.03674 36985 ft 473 kts 149°
2026-05-07 13:19 46.78758 11.09725 36999 ft 478 kts 140°
2026-05-07 13:19 46.74082 11.16633 36975 ft 478 kts 139°
2026-05-07 13:20 46.69434 11.23553 36989 ft 477 kts 139°
2026-05-07 13:20 46.64748 11.30412 36954 ft 477 kts 139°
2026-05-07 13:21 46.60045 11.37218 36910 ft 476 kts 139°
2026-05-07 13:21 46.55362 11.43968 36918 ft 475 kts 140°
2026-05-07 13:22 46.50665 11.50719 36936 ft 475 kts 140°
2026-05-07 13:22 46.45958 11.57471 36946 ft 477 kts 140°
2026-05-07 13:23 46.41233 11.64237 36995 ft 478 kts 140°
2026-05-07 13:23 46.36496 11.71003 36955 ft 478 kts 140°
2026-05-07 13:24 46.31758 11.77744 36966 ft 477 kts 140°
2026-05-07 13:24 46.27024 11.84467 36969 ft 477 kts 140°
2026-05-07 13:25 46.22287 11.91175 36987 ft 477 kts 140°
2026-05-07 13:25 46.18350 11.96739 36970 ft 477 kts 140°
2026-05-07 13:26 46.13607 12.03429 36957 ft 476 kts 141°
2026-05-07 13:26 46.08874 12.10086 36970 ft 475 kts 141°
2026-05-07 13:27 46.04142 12.16722 36980 ft 475 kts 141°
2026-05-07 13:27 45.99402 12.23355 36977 ft 474 kts 141°
2026-05-07 13:28 45.94673 12.29959 36972 ft 474 kts 141°
2026-05-07 13:28 45.89938 12.36548 36955 ft 474 kts 141°
2026-05-07 13:29 45.85197 12.43133 36960 ft 474 kts 141°
2026-05-07 13:29 45.80446 12.49713 36970 ft 475 kts 142°
2026-05-07 13:30 45.75683 12.56296 36962 ft 476 kts 142°
2026-05-07 13:30 45.70905 12.62884 36975 ft 477 kts 142°
2026-05-07 13:31 45.66121 12.69467 36972 ft 477 kts 142°
2026-05-07 13:31 45.61376 12.76127 36959 ft 481 kts 139°
2026-05-07 13:32 45.56926 12.83267 36967 ft 483 kts 136°
2026-05-07 13:32 45.52550 12.90452 36982 ft 482 kts 137°
2026-05-07 13:33 45.48117 12.97631 36973 ft 482 kts 137°
2026-05-07 13:33 45.43668 13.04760 36971 ft 482 kts 137°
2026-05-07 13:34 45.36986 13.15426 37013 ft 481 kts 137°
2026-05-07 13:35 45.32525 13.22532 36992 ft 481 kts 137°
2026-05-07 13:35 45.28088 13.29659 36983 ft 482 kts 137°
2026-05-07 13:36 45.23692 13.36850 36980 ft 482 kts 137°
2026-05-07 13:36 45.19290 13.44008 36998 ft 482 kts 137°
2026-05-07 13:37 45.14748 13.50882 37006 ft 478 kts 141°
2026-05-07 13:37 45.10058 13.57566 36969 ft 478 kts 141°
2026-05-07 13:38 45.05373 13.64227 36993 ft 478 kts 141°
2026-05-07 13:38 45.00701 13.70917 37011 ft 478 kts 141°
2026-05-07 13:39 44.96033 13.77614 37025 ft 478 kts 141°
2026-05-07 13:39 44.91365 13.84302 37004 ft 479 kts 141°
2026-05-07 13:40 44.86693 13.90979 37031 ft 478 kts 141°
2026-05-07 13:40 44.82008 13.97654 37032 ft 479 kts 141°
2026-05-07 13:41 44.77320 14.04317 37012 ft 479 kts 141°
2026-05-07 13:41 44.72623 14.10976 37024 ft 479 kts 141°
2026-05-07 13:42 44.67925 14.17622 36983 ft 479 kts 141°
2026-05-07 13:42 44.63222 14.24257 36999 ft 480 kts 141°
2026-05-07 13:43 44.58508 14.30891 36998 ft 481 kts 141°
2026-05-07 13:43 44.53786 14.37521 37018 ft 480 kts 141°
2026-05-07 13:44 44.49059 14.44143 37006 ft 480 kts 141°
2026-05-07 13:44 44.44334 14.50745 36986 ft 480 kts 141°
2026-05-07 13:45 44.39643 14.57285 37004 ft 480 kts 141°
2026-05-07 13:45 44.34918 14.63855 37017 ft 479 kts 141°
2026-05-07 13:46 44.30188 14.70415 37015 ft 479 kts 141°
2026-05-07 13:46 44.25456 14.76965 37026 ft 479 kts 141°
2026-05-07 13:47 44.20721 14.83501 37018 ft 479 kts 141°
2026-05-07 13:47 44.15984 14.90026 37003 ft 479 kts 141°
2026-05-07 13:48 44.11246 14.96536 37019 ft 478 kts 141°
2026-05-07 13:48 44.06511 15.03026 37026 ft 477 kts 141°
2026-05-07 13:49 44.01776 15.09502 37015 ft 478 kts 141°
2026-05-07 13:49 43.97034 15.15971 36997 ft 478 kts 141°
2026-05-07 13:50 43.92290 15.22427 37012 ft 478 kts 141°
2026-05-07 13:50 43.87537 15.28881 36984 ft 478 kts 141°
2026-05-07 13:51 43.82788 15.35315 37001 ft 478 kts 141°
2026-05-07 13:51 43.78027 15.41748 37003 ft 479 kts 141°
2026-05-07 13:52 43.73259 15.48178 37016 ft 479 kts 141°
2026-05-07 13:52 43.68488 15.54595 37002 ft 479 kts 141°
2026-05-07 13:53 43.63707 15.61013 37030 ft 479 kts 141°
2026-05-07 13:53 43.58925 15.67417 37013 ft 479 kts 141°
2026-05-07 13:54 43.54142 15.73808 37006 ft 479 kts 142°
2026-05-07 13:54 43.49123 15.79726 37011 ft 470 kts 151°
2026-05-07 13:55 43.43745 15.84793 37010 ft 470 kts 152°
2026-05-07 13:55 43.38338 15.89826 37000 ft 470 kts 152°
2026-05-07 13:56 43.32948 15.94914 37022 ft 471 kts 152°
2026-05-07 13:56 43.27569 16.00029 36982 ft 471 kts 151°
2026-05-07 13:57 43.22225 16.05110 37044 ft 470 kts 151°
2026-05-07 13:57 43.16833 16.10222 37046 ft 472 kts 152°
2026-05-07 13:58 43.11421 16.15340 37021 ft 473 kts 152°
2026-05-07 13:58 43.06005 16.20451 37004 ft 473 kts 152°
2026-05-07 13:59 43.00586 16.25555 37042 ft 473 kts 152°
2026-05-07 13:59 42.95159 16.30653 37044 ft 473 kts 152°
2026-05-07 14:00 42.89732 16.35740 37016 ft 474 kts 152°
2026-05-07 14:00 42.84298 16.40824 37039 ft 474 kts 152°
2026-05-07 14:01 42.78855 16.45903 37059 ft 474 kts 152°
2026-05-07 14:01 42.73404 16.50979 37055 ft 475 kts 152°
2026-05-07 14:02 42.67940 16.56056 37035 ft 476 kts 152°
2026-05-07 14:02 42.62466 16.61133 37033 ft 477 kts 152°
2026-05-07 14:03 42.56988 16.66202 37053 ft 476 kts 152°
2026-05-07 14:03 42.51502 16.71267 37024 ft 477 kts 152°
2026-05-07 14:04 42.46011 16.76326 37027 ft 478 kts 152°
2026-05-07 14:04 42.40546 16.81350 37043 ft 478 kts 152°
2026-05-07 14:05 42.35044 16.86398 37013 ft 478 kts 152°
2026-05-07 14:05 42.29530 16.91445 37019 ft 479 kts 152°
2026-05-07 14:06 42.24013 16.96484 37029 ft 480 kts 152°
2026-05-07 14:06 42.18480 17.01528 37042 ft 480 kts 152°
2026-05-07 14:07 42.12937 17.06569 36991 ft 481 kts 152°
2026-05-07 14:07 42.07396 17.11599 37026 ft 481 kts 152°
2026-05-07 14:08 42.01835 17.16636 37026 ft 482 kts 152°
2026-05-07 14:08 41.96263 17.21674 37049 ft 483 kts 152°
2026-05-07 14:09 41.90549 17.26339 36969 ft 475 kts 163°
2026-05-07 14:09 41.87544 17.28109 37124 ft 471 kts 165°
2026-05-07 14:09 41.84518 17.29816 37013 ft 473 kts 165°
2026-05-07 14:10 41.78441 17.33232 37011 ft 475 kts 165°
2026-05-07 14:10 41.72361 17.36726 37032 ft 476 kts 164°
2026-05-07 14:11 41.66279 17.40262 36997 ft 477 kts 165°
2026-05-07 14:11 41.60191 17.43802 37044 ft 478 kts 165°
2026-05-07 14:12 41.54082 17.47343 37063 ft 479 kts 165°
2026-05-07 14:12 41.47952 17.50886 37048 ft 480 kts 165°
2026-05-07 14:13 41.41902 17.54387 36680 ft 466 kts 165°
2026-05-07 14:13 41.38950 17.56093 36419 ft 458 kts 165°
2026-05-07 14:13 41.36055 17.57762 36178 ft 450 kts 165°
2026-05-07 14:13 41.33207 17.59399 35893 ft 442 kts 165°
2026-05-07 14:14 41.30402 17.61008 35655 ft 436 kts 166°
2026-05-07 14:14 41.27629 17.62595 35408 ft 432 kts 166°
2026-05-07 14:14 41.24879 17.64167 35156 ft 431 kts 166°
2026-05-07 14:14 41.22148 17.65725 34904 ft 434 kts 166°
2026-05-07 14:15 41.19359 17.67317 34679 ft 438 kts 166°
2026-05-07 14:15 41.16567 17.68912 34441 ft 435 kts 166°
2026-05-07 14:15 41.14695 17.69983 34276 ft 433 kts 166°
2026-05-07 14:15 41.11048 17.72068 33959 ft 429 kts 166°
2026-05-07 14:16 41.08316 17.73626 33675 ft 426 kts 166°
2026-05-07 14:16 41.05598 17.75173 33392 ft 424 kts 166°
2026-05-07 14:16 41.02897 17.76708 33123 ft 421 kts 166°
2026-05-07 14:16 41.00209 17.78235 32834 ft 420 kts 166°
2026-05-07 14:17 40.98396 17.79262 32651 ft 419 kts 166°
2026-05-07 14:17 40.95720 17.80779 32401 ft 418 kts 166°
2026-05-07 14:17 40.93078 17.82275 32157 ft 418 kts 166°
2026-05-07 14:17 40.90409 17.83786 31899 ft 417 kts 165°
2026-05-07 14:18 40.87745 17.85293 31651 ft 416 kts 165°
2026-05-07 14:18 40.85099 17.86791 31384 ft 411 kts 165°
2026-05-07 14:18 40.82482 17.88271 31050 ft 408 kts 165°
2026-05-07 14:18 40.79876 17.89742 30699 ft 407 kts 165°
2026-05-07 14:19 40.77278 17.91206 30359 ft 404 kts 165°
2026-05-07 14:19 40.74705 17.92656 30023 ft 401 kts 164°
2026-05-07 14:19 40.72140 17.94099 29624 ft 399 kts 164°
2026-05-07 14:19 40.69597 17.95530 29272 ft 396 kts 164°
2026-05-07 14:20 40.67078 17.96947 28934 ft 392 kts 164°
2026-05-07 14:20 40.64575 17.98353 28542 ft 390 kts 163°
2026-05-07 14:20 40.62185 18.00056 28165 ft 397 kts 151°
2026-05-07 14:20 40.60062 18.02388 27945 ft 398 kts 140°
2026-05-07 14:21 40.58280 18.05180 27692 ft 399 kts 131°
2026-05-07 14:21 40.56665 18.08119 27477 ft 396 kts 130°
2026-05-07 14:21 40.55070 18.11089 27209 ft 400 kts 130°
2026-05-07 14:21 40.53460 18.14093 26955 ft 403 kts 130°
2026-05-07 14:22 40.51841 18.17095 26713 ft 401 kts 130°
2026-05-07 14:22 40.50368 18.20207 26395 ft 402 kts 123°
2026-05-07 14:22 40.49064 18.23439 26155 ft 398 kts 121°
2026-05-07 14:22 40.47816 18.26657 25892 ft 394 kts 121°
2026-05-07 14:23 40.46581 18.29861 25527 ft 393 kts 121°
2026-05-07 14:23 40.45337 18.33063 25164 ft 393 kts 121°
2026-05-07 14:23 40.44089 18.36243 24879 ft 390 kts 121°
2026-05-07 14:23 40.42849 18.39380 24634 ft 386 kts 121°
2026-05-07 14:24 40.41612 18.42489 24363 ft 383 kts 121°
2026-05-07 14:24 40.40377 18.45579 24023 ft 382 kts 121°
2026-05-07 14:24 40.39137 18.48670 23675 ft 382 kts 121°
2026-05-07 14:24 40.37900 18.51750 23203 ft 383 kts 121°
2026-05-07 14:25 40.36626 18.54909 21934 ft 404 kts 121°
2026-05-07 14:25 40.35268 18.58265 20608 ft 427 kts 121°
2026-05-07 14:25 40.33851 18.61771 19499 ft 440 kts 121°
2026-05-07 14:25 40.32401 18.65363 18266 ft 453 kts 121°
2026-05-07 14:26 40.30921 18.69028 17171 ft 459 kts 121°
2026-05-07 14:26 40.29459 18.72661 17129 ft 438 kts 121°
2026-05-07 14:26 40.28052 18.76155 17091 ft 434 kts 121°
2026-05-07 14:26 40.26636 18.79653 17060 ft 438 kts 121°
2026-05-07 14:27 40.25204 18.83180 17063 ft 439 kts 121°
2026-05-07 14:27 40.23770 18.86707 17052 ft 438 kts 121°
2026-05-07 14:27 40.22348 18.90203 16975 ft 429 kts 121°
2026-05-07 14:27 40.20956 18.93626 16371 ft 426 kts 121°
2026-05-07 14:28 40.19562 18.97044 15635 ft 426 kts 121°
2026-05-07 14:28 40.18167 19.00461 14953 ft 425 kts 121°
2026-05-07 14:28 40.16782 19.03850 14412 ft 420 kts 121°
2026-05-07 14:28 40.15415 19.07194 13904 ft 414 kts 121°
2026-05-07 14:29 40.14061 19.10499 13272 ft 411 kts 121°
2026-05-07 14:29 40.12717 19.13778 12657 ft 407 kts 122°
2026-05-07 14:29 40.11391 19.17010 12162 ft 401 kts 122°
2026-05-07 14:29 40.10079 19.20202 11565 ft 398 kts 121°
2026-05-07 14:30 40.08772 19.23379 10963 ft 396 kts 121°
2026-05-07 14:30 40.07474 19.26529 10393 ft 393 kts 121°
2026-05-07 14:30 40.06185 19.29655 9841 ft 389 kts 121°
2026-05-07 14:30 40.04908 19.32752 9291 ft 385 kts 121°
2026-05-07 14:31 40.03649 19.35801 8863 ft 379 kts 121°
2026-05-07 14:31 40.02412 19.38813 8510 ft 375 kts 120°
2026-05-07 14:31 40.01187 19.41795 8007 ft 371 kts 121°
2026-05-07 14:31 39.99977 19.44707 7914 ft 356 kts 121°
2026-05-07 14:32 39.98822 19.47488 7805 ft 343 kts 121°
2026-05-07 14:32 39.97707 19.50171 7699 ft 330 kts 121°
2026-05-07 14:32 39.96634 19.52751 7595 ft 319 kts 121°
2026-05-07 14:32 39.95581 19.55279 7291 ft 315 kts 121°
2026-05-07 14:33 39.94544 19.57768 7039 ft 310 kts 121°
2026-05-07 14:33 39.93521 19.60222 6772 ft 306 kts 121°
2026-05-07 14:33 39.92509 19.62647 6518 ft 302 kts 121°
2026-05-07 14:33 39.91526 19.65005 6441 ft 291 kts 121°
2026-05-07 14:34 39.90548 19.67346 5856 ft 299 kts 121°
2026-05-07 14:34 39.89550 19.69731 5389 ft 301 kts 121°
2026-05-07 14:34 39.88544 19.72136 4903 ft 304 kts 120°
2026-05-07 14:34 39.87529 19.74561 4412 ft 306 kts 120°
2026-05-07 14:35 39.86508 19.77001 3913 ft 308 kts 120°
2026-05-07 14:35 39.85483 19.79451 3438 ft 309 kts 120°
2026-05-07 14:35 39.84462 19.81887 3226 ft 301 kts 118°
2026-05-07 14:35 39.83528 19.84114 3167 ft 266 kts 118°
2026-05-07 14:36 39.82699 19.86088 3160 ft 233 kts 118°
2026-05-07 14:36 39.81963 19.87845 3160 ft 204 kts 120°
2026-05-07 14:36 39.81323 19.89367 3147 ft 186 kts 120°
2026-05-07 14:36 39.80531 19.90644 3160 ft 180 kts 151°
2026-05-07 14:37 39.79347 19.91094 3224 ft 180 kts 169°
2026-05-07 14:37 39.76865 19.91210 3282 ft 182 kts 192°
2026-05-07 14:37 39.75614 19.90720 3141 ft 190 kts 197°
2026-05-07 14:38 39.74405 19.90098 2908 ft 184 kts 199°
2026-05-07 14:38 39.73229 19.89495 2568 ft 180 kts 196°
2026-05-07 14:38 39.72013 19.89120 2089 ft 179 kts 183°
2026-05-07 14:38 39.70819 19.89026 1774 ft 172 kts 181°
2026-05-07 14:39 39.69604 19.89063 1620 ft 193 kts 174°
2026-05-07 14:39 39.68231 19.89301 1716 ft 187 kts 168°
2026-05-07 14:39 39.67027 19.89584 1552 ft 168 kts 171°
2026-05-07 14:39 39.65859 19.89804 1214 ft 173 kts 170°
2026-05-07 14:40 39.64665 19.90110 922 ft 176 kts 168°
2026-05-07 14:40 39.63492 19.90420 552 ft 172 kts 166°
2026-05-07 14:40 39.62342 19.90694 347 ft 163 kts 169°
2026-05-07 14:40 39.61244 19.90958 60 ft 155 kts 167°
2026-05-07 14:41 39.60291 19.91194 6 ft 109 kts 166°
2026-05-07 14:41 39.59930 19.91249 7 ft 21 kts 267°
2026-05-07 14:41 39.60024 19.91248 7 ft 34 kts
2026-05-07 14:41 39.60320 19.91180 8 ft 50 kts 348°
2026-05-07 14:42 39.60564 19.91184 5 ft 17 kts 30°
2026-05-07 14:42 39.60579 19.91194 5 ft 0 kts 28°
2026-05-07 14:42 39.60596 19.91203 8 ft 4 kts 20°
2026-05-07 14:42 39.60629 19.91217 6 ft 9 kts 14°
2026-05-07 14:43 39.60681 19.91264 7 ft 7 kts 72°
2026-05-07 14:43 39.60689 19.91314 7 ft 7 kts 80°
2026-05-07 14:43 39.60694 19.91351 7 ft 1 kts 80°
2026-05-07 14:43 39.60696 19.91360 7 ft 0 kts 80°
2026-05-07 14:44 39.60696 19.91363 7 ft 0 kts 80°